Regional Weather Roundup
Issued by NWS

Home | Current Version | Previous Version | Text Only | Print | Product List | Glossary Off
Versions: 1 2 3 4 5 6 7 8 9 10 11 12 13 14 15 16 17 18 19 20 21 22 23 24 25 26 27 28 29 30 31 32 33 34 35 36 37 38 39 40 41 42 43 44 45 46 47 48 49 50

000
ASUS43 KDMX 290707
RWRIA

WEATHER ROUNDUP FOR IOWA
NATIONAL WEATHER SERVICE DES MOINES IA
100 AM CST MON DEC 29 2014

NOTE: "FAIR" INDICATES FEW OR NO CLOUDS BELOW 12,000 FEET WITH NO
SIGNIFICANT WEATHER AND/OR OBSTRUCTIONS TO VISIBILITY.

* - THESE STATIONS ARE NOT NWS STATIONS...THUS NOT UNDER NWS
QUALITY CONTROL.  THEY ALSO DO NOT REPORT WEATHER SUCH
AS PRECIPITATION OR FOG.

IAZ001>003-012>014-020>022-031>034-043>046-290800-
   NORTHWEST IOWA

CITY           SKY/WX    TMP DP  RH WIND       PRES   REMARKS
CARROLL *      FLURRIES  21  19  93 NE9       30.26R WCI  11
CHEROKEE *     CLOUDY    19  18  93 NE7       30.28R FOG     WCI  10
DENISON *      CLOUDY    21  19  93 NE10      30.23S WCI  10
LE MARS *      LGT SNOW  21  18  86 NE12      30.29R WCI   9
ORANGE CITY *  LGT SNOW  19  16  86 NE9       30.27S WCI   9
SHELDON *      LGT SNOW  19  18  93 NE10      30.28R WCI   8
SIOUX CITY     LGT SNOW  21  17  84 NE8       30.28S FOG     WCI  11
SPENCER        CLOUDY    19  15  84 NE12      30.29S WCI   7
STORM LAKE *   CLOUDY    19  18  93 NE15G21   30.26R FOG     WCI   5
$$

IAZ055>058-069>071-079>083-090>094-290800-
   SOUTHWEST IOWA

CITY           SKY/WX    TMP DP  RH WIND       PRES   REMARKS
ATLANTIC *     MOCLDY    25  23  93 NE8       30.22S WCI  16
AUDUBON *      MOCLDY    21  18  86 NE8       30.23S WCI  12
CLARINDA *     CLOUDY    30  25  80 CALM      30.21S
COUNCIL BLFS * MOCLDY    23  23 100 N9        30.20S WCI  13
CRESTON *      CLOUDY    27  25  93 NE8       30.20R WCI  18
HARLAN  *      MOCLDY    23  23 100 NE8       30.26S WCI  14
LAMONI         CLOUDY    29  22  75 CALM      30.19S
RED OAK *      MOCLDY    27  25  93 N7        30.22R WCI  19
SHENANDOAH *   PTCLDY    27  25  93 N8        30.21S WCI  18
$$

IAZ047>049-059>061-072>074-084-290800-
   CENTRAL IOWA

CITY           SKY/WX    TMP DP  RH WIND       PRES   REMARKS
AMES           CLOUDY    24  19  81 NE10      30.26R WCI  14
ANKENY *       CLOUDY    27  25  93 NE7       30.25R WCI  19
CHARITON *     CLOUDY    28  25  86 NE5       30.21S WCI  23
DES MOINES     CLOUDY    29  23  78 NE9       30.24R WCI  20
GRINNELL*      CLOUDY    27  23  86 NE8       30.24S WCI  18
KNOXVILLE *    CLOUDY    28  21  74 NE6       30.22R WCI  22
MARSHALLTOWN   CLOUDY    24  21  88 NE7       30.25R WCI  16
PELLA *        MOCLDY    28  23  80 CALM      30.25S
PERRY *        MOCLDY    27  25  93 NE9       30.24S WCI  17
$$

IAZ004>006-015-016-023>025-035-036-290800-
   NORTH CENTRAL IOWA

CITY           SKY/WX    TMP DP  RH WIND       PRES   REMARKS
ALGONA *       CLOUDY    19  16  86 NE13      30.30R WCI   7
CLARION *      LGT SNOW  19  18  93 NE15      30.28R WCI   5
ESTHERVILLE    CLOUDY    17  15  92 NE12      30.30R WCI   4
FORT DODGE *   CLOUDY    19  14  79 NE8       30.28S WCI   9
MASON CITY     CLOUDY    18  13  80 NE8       30.31R WCI   8
FOREST CITY *  CLOUDY    19  14  79 NE7       30.29S WCI  10
IOWA FALLS *   CLOUDY    21  18  86 N9        30.28R WCI  11
$$

IAZ007>011-017>019-026>030-037>042-050>054-066-290800-
   NORTHEAST IOWA

CITY           SKY/WX    TMP DP  RH WIND       PRES   REMARKS
CEDAR RAPIDS   CLOUDY    27  21  78 NE7       30.24F WCI  19
CHARLES CITY * CLOUDY    19  16  86 NE10      30.30S WCI   8
CLINTON *      MOCLDY    25  19  80 NE7       30.27F WCI  17
DECORAH *      CLOUDY    19  14  79 NE6       30.28R WCI  11
DUBUQUE        CLOUDY    24  19  81 NE3       30.26R
MONTICELLO *   CLOUDY    27  25  93 N3        30.26S FOG
OELWEIN *      CLOUDY    23  19  86 NE9       30.27S WCI  13
WATERLOO       CLOUDY    23  19  85 NE9       30.28S WCI  13
$$

IAZ064-065-067-068-078-290800-
   EAST CENTRAL IOWA

CITY           SKY/WX    TMP DP  RH WIND       PRES   REMARKS
DAVENPORT      MOCLDY    24  17  74 NE6       30.25F WCI  17
IOWA CITY      CLOUDY    28  19  69 NE5       30.27S WCI  23
MT. PLEASANT * CLOUDY    25  21  86 NE6       30.24S WCI  18
MUSCATINE *    CLOUDY    27  21  80 CALM      30.26S
QUAD CITIES    MOCLDY    22  19  89 CALM      30.25F
$$

IAZ062-063-075>077-085>089-095>099-290800-
   SOUTHEAST IOWA

CITY           SKY/WX    TMP DP  RH WIND       PRES   REMARKS
BURLINGTON     MOCLDY    26  22  84 CALM      30.24S
FAIRFIELD *    CLOUDY    28  21  74 NE7       30.24S WCI  21
FORT MADISON * CLEAR     27  21  80 CALM      30.24S
KEOKUK *       PTCLDY    23  21  93 CALM      30.23S
OSKALOOSA *    CLOUDY    27  21  80 NE5       30.24R WCI  21
CENTERVILLE *  CLEAR     28  23  80 CALM      30.23R
OTTUMWA        CLOUDY    28  21  75 NE7       30.23R WCI  21
WASHINGTON *   CLOUDY    27  25  93 NE6       30.25R WCI  20
$$

ABBREVIATIONS USED IN REMARKS
   TC - TEMPERATURES IN CELSIUS
  WCI - WIND CHILL INDEX
   HX - HEAT INDEX
  VSB - VISIBILITY
$$



USA.gov is the U.S. government's official web portal to all federal, state and local government web resources and services.